Torna al catalogo

STARLINK-5237

AttivoComunicazioniVLEO
NORAD 54196·PAYLOAD·🇺🇸 United States

Lanciato Oct 28, 2022 da Vandenberg Space Force Base

Loading…

Prossimi Passaggi (prossime 24 ore)

TLE

AggiornatoSource: CelesTrak SupGP

Epoca: Sep 14, 2026, 22:02 UTC

1 54196C 22141AR  26257.91854167 -.00003170  00000+0 -90663-4 0  2575
2 54196  53.1580 214.0306 0001402  93.7254  37.1432 15.35414271    16

Traccia STARLINK-5237 in tempo reale con AllMySat

Download on the App Store